{"data":{"norad_id":37238,"intl_designator":"2010-065B","name":"INTELSAT 17 (IS-17)","alt_names":[],"object_type":"PAYLOAD","status":"ACTIVE","operator":null,"country":"ITSO","launch_date":"2010-11-26","launch_site_code":"FRGUI","launch_vehicle":null,"mission":null,"orbit_class":"UNKNOWN","rcs_meters":6.3096,"size_class":null,"mass_kg":null,"dimensions":null,"purposes":["comms"],"wikipedia_slug":null,"has_3d_model":false,"image_url":null,"decayed_at":null,"tle_current":{"epoch":"2026-05-25T04:12:38.752128Z","epoch_age_seconds":56986,"freshness":"FRESH","line1":"1 37238U 10065B   26145.17544852 -.00000004  00000+0  00000+0 0  9992","line2":"2 37238   0.0066 281.6341 0002532 140.2860 310.0173  1.00272776 53011","mean_motion":1.00272776,"eccentricity":0.0002532,"inclination_deg":0.0066,"raan_deg":281.6341,"arg_perigee_deg":140.286,"mean_anomaly_deg":310.0173,"bstar":0,"rev_number":5301,"period_min":1436.0827110242,"perigee_km":35775.641110414,"apogee_km":35796.993189995,"semimajor_km":42164.454150204,"source":"CELESTRAK","updated_at":"2026-05-25T13:38:14.330150Z"}}}